Regional Weather Roundup
Issued by NWS

Home | Current Version | Previous Version | Graphics & Text | Print | Product List | Glossary On
Versions: 1 2 3 4 5 6 7 8 9 10 11 12 13 14 15 16 17 18 19 20 21 22 23 24 25 26 27 28 29 30 31 32 33 34 35 36 37 38 39 40 41 42 43 44 45 46 47 48 49 50
000
ASUS43 KFSD 210802
RWRSD

WEATHER ROUNDUP FOR SOUTH DAKOTA
NATIONAL WEATHER SERVICE SIOUX FALLS SD
300 AM CDT TUE OCT 21 2014

NOTE: "FAIR" INDICATES FEW OR NO CLOUDS BELOW 12,000 FEET WITH NO
SIGNIFICANT WEATHER AND/OR OBSTRUCTIONS TO VISIBILITY.


SDZ001>005-009-010-012>017-210900-
NORTHWEST AND NORTH CENTRAL SOUTH DAKOTA

CITY           SKY/WX    TMP DP  RH WIND       PRES   REMARKS
FAITH            N/A     51  40  65 S16       29.83S
MOBRIDGE       CLEAR     57  36  45 SE18      29.87F
$$

SDZ012>016-024>037-041>051-057-063-072>074-210900-
SOUTHWEST AND SOUTH CENTRAL SOUTH DAKOTA

CITY           SKY/WX    TMP DP  RH WIND       PRES   REMARKS
RAPID CTY ARPT CLEAR     51  41  68 SE13      29.86F
PIERRE         CLEAR     53  39  59 SE12      29.90S
CUSTER         CLEAR     53  34  48 W5        30.00S
ELLSWORTH AFB  CLEAR     58  42  54 S8        29.85S
PHILIP         CLEAR     49  39  68 E5        29.87S
PINE RIDGE     CLEAR     59  41  51 S16       29.93S
SPEARFISH      FAIR      50  37  62 SE3       29.87F
WINNER         FAIR      60  40  47 S20G28    29.94S
$$

SDZ004>011-016>023-039-040-210900-
NORTHEAST SOUTH DAKOTA

CITY           SKY/WX    TMP DP  RH WIND       PRES   REMARKS
ABERDEEN       CLEAR     46  39  76 SE7       30.01S
WATERTOWN      CLEAR     44  36  73 SE5       30.06R
SISSETON         N/A     36  33  89 S5        30.05S
$$

SDZ017-020-022-023-036>040-048>070-210900-
SOUTHEAST SOUTH DAKOTA

CITY           SKY/WX    TMP DP  RH WIND       PRES   REMARKS
SIOUX FALLS    CLEAR     40  35  83 NE5       30.07R
HURON          CLEAR     47  36  65 SE8       30.02S
CHAMBERLAIN    CLEAR     47  36  65 SE12      29.98S
MITCHELL       CLEAR     45  36  70 SE6       30.04R
YANKTON        CLEAR     43  37  81 E3        30.06S
$$

ABBREVIATIONS USED IN REMARKS
   TC - TEMPERATURE IN CELSIUS
  WCI - WIND CHILL INDEX
   HX - HEAT INDEX
  VSB - VISIBILITY



USA.gov is the U.S. government's official web portal to all federal, state and local government web resources and services.